Regional Weather Roundup
Issued by NWS Sterling, VA

Home | Current Version | Previous Version | Text Only | Print | Product List | Glossary Off
Versions: 1 2 3 4 5 6 7 8 9 10 11 12 13 14 15 16 17 18 19 20 21 22 23 24 25 26 27 28 29 30 31 32 33 34 35 36 37 38 39 40 41 42 43 44 45 46 47 48 49 50

000
ASUS41 KLWX 211110
RWRLWX

REGIONAL WEATHER ROUNDUP
NATIONAL WEATHER SERVICE BALTIMORE MD/WASHINGTON DC
700 AM EDT SUN SEP 21 2014

Note: "FAIR" indicates few or no clouds below 12,000 feet
with no significant weather and/or obstructions to visibility.
 TC=TEMPERATURE CELSIUS

 * =Non NWS site. Station does not report precipitation (e.g. rain,
    snow, etc.), thunder, or fog.

DCZ001-MDZ009-015-VAZ040>042-051-053>054-211200-
WASHINGTON METRO

CITY           SKY/WX    TMP DP  RH WIND       PRES   REMARKS
WASHINGTON NAT PTCLDY    65  59  81 NE6       29.90F
DULLES         MOCLDY    54  54 100 CALM      29.91R
ANDREWS AFB    CLEAR     57  56  99 NE2       29.89F
QUANTICO       CLEAR     60  57  89 NW8       29.90F
COLLEGE PARK*  CLEAR     57  57 100 CALM      29.90S
LEESBURG*      CLEAR     57  57 100 CALM      29.91S
MANASSAS*      CLEAR     54  54 100 CALM      29.91R
GAITHERSBURG*  CLEAR     55  54  94 CALM      29.95R

$$

MDZ006>007-011-014-211200-
BALTIMORE METRO

CITY           SKY/WX    TMP DP  RH WIND       PRES   REMARKS
BWI AIRPORT    FOG       59  57  94 NW5       29.90S VSB 1/2
MD SCIENCE CTR   N/A     66  64  93 MISG      29.91R
ANNAPOLIS      PTCLDY    66  63  90 N3        29.89R
FORT MEADE*    CLEAR     52  50  93 CALM      29.92F

$$

MDZ012-015-019>023-211200-
MARYLAND EASTERN SHORE

CITY           SKY/WX    TMP DP  RH WIND       PRES   REMARKS
OCEAN CITY     CLOUDY   N/A N/A N/A NE6       29.87S HAZE
SALISBURY      CLOUDY    70  66  88 NE7       29.86F FOG
BAY BRIDGE AP* FOG       64  64 100 NE3       29.89F VSB 3/4
CAMBRIDGE*     MOCLDY    68  64  88 NE5       29.86F
EASTON*        FOG       64  64 100 CALM      29.91F VSB 1/4

$$

MDZ017>025-211200-
SOUTHERN MARYLAND

CITY           SKY/WX    TMP DP  RH WIND       PRES   REMARKS
PATUXENT RIVER MOCLDY    67  65  93 NE5       29.86F
ST INIGOES     CLOUDY    66  62  87 NE3       29.85F
LEONARDTOWN*   CLOUDY    63  61  94 CALM      29.88S

$$

MDZ003>005-211200-
NORTH CENTRAL MARYLAND

CITY           SKY/WX    TMP DP  RH WIND       PRES   REMARKS
FREDERICK*     CLEAR     57  57 100 SE3       29.92F
HAGERSTOWN APT CLEAR     59  56  89 CALM      29.90F
WESTMINSTER*   PTCLDY    55  54  94 E3        29.91S FOG

$$

MDZ501>502-211200-
WESTERN MARYLAND

CITY           SKY/WX    TMP DP  RH WIND       PRES   REMARKS
OAKLAND*       PTCLDY    55 N/A N/A S9        29.95S
CUMBERLAND*      N/A     55  54  94 CALM      29.94F

$$

VAZ025>031-211200-
SHENANDOAH VALLEY

CITY           SKY/WX    TMP DP  RH WIND       PRES   REMARKS
WINCHESTER*    CLEAR     55  54  94 S3        29.89F
STAUNTON*      CLEAR     51  49  93 CALM      29.96S FOG

$$

WVZ021-048>050-054>055-211200-
EASTERN WEST VIRGINIA PANHANDLE

CITY           SKY/WX    TMP DP  RH WIND       PRES   REMARKS
MARTINSBURG    CLEAR     55  50  83 CALM      29.90F HAZE
PETERSBURG*    CLEAR     51  49  93 CALM      29.94S FOG

$$

VAZ036>039-050-211200-
CENTRAL FOOTHILLS

CITY           SKY/WX    TMP DP  RH WIND       PRES   REMARKS
CHARLOTTESVILL CLEAR     55  53  93 CALM      29.90F
ORANGE*          N/A     52  52 100 CALM      29.91F FOG

$$

VAZ055>057-211200-
NORTH AND CENTRAL PIEDMONT

CITY           SKY/WX    TMP DP  RH WIND       PRES   REMARKS
FREDERICKSBRG* PTCLDY    57  57 100 CALM      29.88F
STAFFORD*      CLEAR     53  53 100 NW3       29.93F FOG

$$

NCZ024-NYZ072-PAZ021-071-VAZ022-071-211200-
OTHER REGIONAL OBSERVATIONS

CITY           SKY/WX    TMP DP  RH WIND       PRES   REMARKS
NEW YORK CITY  CLOUDY    68  65  90 CALM      29.93F FOG
PHILADELPHIA   MOCLDY    67  64  90 N8        29.91R FOG
PITTSBURGH     PTCLDY    67  62  84 S9        29.80F
ROANOKE        PTCLDY    56  54  93 NE3       29.98F
RICHMOND       CLOUDY    63  61  93 NW6       29.89R
RALEIGH        PTCLDY    63  60  90 CALM      29.91R

$$

ANZ530>537-211200-
MARINE OBSERVATIONS

STATION/POSITION TIME  TEMP    WIND        PRES
                       AIR SEA DIR/SP/G
                 (UTC) (F)     (DEG/KT/KT) (MB)
THOMAS PT LIGHT  1100   67 74   60/  7/  7 1013.1R
BALT KEY BRIDGE  1100   65     350/  4/  4 1012.5R
COVE POINT       1100   68      90/  6/  7 1011.2S
LEWISETTA        1100   70 74   70/  8/ 10 1010.6F
SOLOMONS ISLAND  1100      76                N/A
PINEY POINT      1100          100/  4/  5   N/A

$$



USA.gov is the U.S. government's official web portal to all federal, state and local government web resources and services.